Weather History for Quincy Muni, Quincy, FL, FL

Change the Weather History Date:

Wednesday, August 27, 2014

  Actual Average (KTLH) Record (KTLH)
Temperature  
Mean Temperature 83 °F 81 °F  
Max Temperature 98 °F 91 °F 102 °F (2011)
Min Temperature 68 °F 72 °F 61 °F (1969)
Degree Days  
Heating Degree Days 0    
Month to date heating degree days  
Since 1 June heating degree days  
Since 1 July heating degree days  
Cooling Degree Days 18    
Month to date cooling degree days  
Year to date cooling degree days  
Since 1 June cooling degree days  
Growing Degree Days 33 (Base 50)    
Moisture  
Dew Point 66 °F    
Average Humidity 66    
Maximum Humidity 100    
Minimum Humidity 28    
Precipitation  
Precipitation 0.00 in 0.20 in 2.45 in (1901)
Month to date precipitation 6.60  
Year to date precipitation 43.16  
Sea Level Pressure  
Sea Level Pressure 30.03 in    
Wind  
Wind Speed 1 mph (NE)    
Max Wind Speed 13 mph    
Max Gust Speed 16 mph    
Visibility 10 miles    
Events      
T = Trace of Precipitation, MM = Missing Value Source: NWS Daily Summary

Daily Weather History Graph

Daily Weather History Graph

Search for Another Location

Airport:

Trip Planner

Search our weather history database for the weather conditions in past years. The results will help you decide how hot, cold, wet, or windy it might be!

Date:

Astronomy

Aug. 27, 2014 Rise Set
Actual Time 7:11 AM EDT 8:07 PM EDT
Civil Twilight 6:47 AM EDT 8:31 PM EDT
Nautical Twilight 6:17 AM EDT 9:00 PM EDT
Astronomical Twilight 5:47 AM EDT 9:30 PM EDT
Moon 8:56 AM EDT (8/27) 9:11 PM EDT (8/27)
Length of Visible Light 13h 44m
Length of Day
12h 55m
Waxing Crescent, 4% of the Moon is Illuminated
Aug 27
Waxing Crescent
Sep 2
First Quarter
Sep 8
Full
Sep 15
Last Quarter
Sep 24
New

Hourly Weather History & Observations

Time (EDT) Temp. Heat Index Dew Point Humidity Pressure Visibility Wind Dir Wind Speed Gust Speed Precip Events Conditions
12:35 AM 71.6 °F - 69.8 °F 94% 30.02 in 10.0 mi Calm Calm - N/A   Clear
1:15 AM 71.6 °F - 69.8 °F 94% 30.01 in 10.0 mi Calm Calm - N/A   Clear
1:35 AM 71.6 °F - 69.8 °F 94% 30.01 in 10.0 mi Calm Calm - N/A   Clear
1:55 AM 71.6 °F - 69.8 °F 94% 30.01 in 10.0 mi Calm Calm - N/A   Clear
2:15 AM 71.6 °F - 68.0 °F 88% 30.02 in 10.0 mi Calm Calm - N/A   Clear
2:35 AM 69.8 °F - 68.0 °F 94% 30.01 in 10.0 mi Calm Calm - N/A   Clear
2:55 AM 69.8 °F - 68.0 °F 94% 30.01 in 10.0 mi Calm Calm - N/A   Clear
3:15 AM 69.8 °F - 68.0 °F 94% 30.01 in 10.0 mi Calm Calm - N/A   Clear
3:35 AM 68.0 °F - 68.0 °F 100% 30.01 in 10.0 mi Calm Calm - N/A   Clear
3:55 AM 68.0 °F - 68.0 °F 100% 30.02 in 10.0 mi Calm Calm - N/A   Clear
4:15 AM 68.0 °F - 68.0 °F 100% 30.02 in 10.0 mi Calm Calm - N/A   Clear
4:35 AM 68.0 °F - 68.0 °F 100% 30.02 in 10.0 mi Calm Calm - N/A   Clear
4:55 AM 68.0 °F - 68.0 °F 100% 30.02 in 10.0 mi Calm Calm - N/A   Clear
5:15 AM 68.0 °F - 68.0 °F 100% 30.02 in 10.0 mi Calm Calm - N/A   Clear
5:35 AM 68.0 °F - 68.0 °F 100% 30.02 in 10.0 mi Calm Calm - N/A   Clear
5:55 AM 68.0 °F - 68.0 °F 100% 30.03 in 10.0 mi Calm Calm - N/A   Clear
6:15 AM 68.0 °F - 68.0 °F 100% 30.03 in 10.0 mi Calm Calm - N/A   Clear
6:35 AM 68.0 °F - 68.0 °F 100% 30.04 in 10.0 mi Calm Calm - N/A   Clear
6:55 AM 68.0 °F - 66.2 °F 94% 30.04 in 10.0 mi Calm Calm - N/A   Clear
7:15 AM 68.0 °F - 66.2 °F 94% 30.05 in 9.0 mi Calm Calm - N/A   Clear
7:35 AM 68.0 °F - 68.0 °F 100% 30.06 in 10.0 mi Calm Calm - N/A   Clear
7:55 AM 73.4 °F - 71.6 °F 94% 30.06 in 10.0 mi Calm Calm - N/A   Clear
8:15 AM 75.2 °F - 73.4 °F 94% 30.07 in 10.0 mi Calm Calm - N/A   Clear
8:35 AM 78.8 °F - 75.2 °F 89% 30.07 in 10.0 mi Calm Calm - N/A   Clear
8:55 AM 80.6 °F 86.2 °F 75.2 °F 84% 30.07 in 10.0 mi Calm Calm - N/A   Clear
9:15 AM 82.4 °F 88.2 °F 73.4 °F 74% 30.07 in 10.0 mi Calm Calm - N/A   Clear
9:35 AM 84.2 °F 89.6 °F 71.6 °F 66% 30.08 in 10.0 mi Calm Calm - N/A   Clear
9:55 AM 86.0 °F 90.4 °F 69.8 °F 58% 30.08 in 10.0 mi East 5.8 mph - N/A   Clear
10:15 AM 86.0 °F 90.4 °F 69.8 °F 58% 30.08 in 10.0 mi Calm Calm - N/A   Clear
10:35 AM 86.0 °F 89.4 °F 68.0 °F 55% 30.08 in 10.0 mi Calm Calm - N/A   Clear
10:55 AM 87.8 °F 90.4 °F 66.2 °F 49% 30.08 in 10.0 mi East 8.1 mph - N/A   Clear
11:15 AM 89.6 °F 92.2 °F 66.2 °F 46% 30.08 in 10.0 mi ESE 5.8 mph - N/A   Scattered Clouds
11:35 AM 89.6 °F 93.4 °F 68.0 °F 49% 30.08 in 10.0 mi Calm Calm - N/A   Partly Cloudy
11:55 AM 91.4 °F 94.0 °F 66.2 °F 43% 30.08 in 10.0 mi NE 6.9 mph - N/A   Scattered Clouds
12:15 PM 93.2 °F 96.2 °F 66.2 °F 41% 30.07 in 10.0 mi Calm Calm - N/A   Scattered Clouds
12:35 PM 91.4 °F 94.0 °F 66.2 °F 43% 30.07 in 10.0 mi NNE 3.5 mph - N/A   Mostly Cloudy
12:55 PM 91.4 °F 94.0 °F 66.2 °F 43% 30.06 in 10.0 mi Calm Calm - N/A   Mostly Cloudy
1:15 PM 93.2 °F 94.9 °F 64.4 °F 38% 30.06 in 10.0 mi North 4.6 mph - N/A   Scattered Clouds
1:35 PM 95.0 °F 96.0 °F 62.6 °F 34% 30.05 in 10.0 mi East 3.5 mph - N/A   Scattered Clouds
1:55 PM 95.0 °F 96.0 °F 62.6 °F 34% 30.04 in 10.0 mi East 4.6 mph - N/A   Scattered Clouds
2:15 PM 98.6 °F 100.0 °F 62.6 °F 30% 30.04 in 10.0 mi NE 6.9 mph - N/A   Scattered Clouds
2:35 PM 95.0 °F 96.0 °F 62.6 °F 34% 30.03 in 10.0 mi NNE 6.9 mph - N/A   Mostly Cloudy
2:55 PM 96.8 °F 98.0 °F 62.6 °F 32% 30.02 in 10.0 mi NNE 10.4 mph - N/A   Scattered Clouds
3:15 PM 96.8 °F 96.2 °F 59.0 °F 28% 30.01 in 10.0 mi North 5.8 mph - N/A   Scattered Clouds
3:35 PM 98.6 °F 99.4 °F 60.8 °F 29% 30.00 in 10.0 mi NNE 12.7 mph 16.1 mph N/A   Partly Cloudy
3:55 PM 95.0 °F 96.0 °F 62.6 °F 34% 30.00 in 10.0 mi North 5.8 mph - N/A   Clear
4:15 PM 93.2 °F 92.6 °F 59.0 °F 32% 29.99 in 10.0 mi Calm Calm - N/A   Clear
4:35 PM 93.2 °F 93.3 °F 60.8 °F 34% 29.99 in 10.0 mi North 5.8 mph - N/A   Clear
4:55 PM 93.2 °F 94.1 °F 62.6 °F 36% 29.99 in 10.0 mi North 3.5 mph - N/A   Clear
5:15 PM 93.2 °F 94.1 °F 62.6 °F 36% 29.99 in 10.0 mi Calm Calm - N/A   Clear
5:35 PM 95.0 °F 96.0 °F 62.6 °F 34% 29.99 in 10.0 mi North 5.8 mph - N/A   Clear
5:55 PM 91.4 °F 92.1 °F 62.6 °F 38% 29.98 in 10.0 mi Calm Calm - N/A   Clear
6:15 PM 93.2 °F 94.1 °F 62.6 °F 36% 29.99 in 10.0 mi Calm Calm - N/A   Partly Cloudy
6:35 PM 93.2 °F 94.1 °F 62.6 °F 36% 29.99 in 10.0 mi Calm Calm - N/A   Partly Cloudy
6:55 PM 93.2 °F 94.1 °F 62.6 °F 36% 29.98 in 10.0 mi Calm Calm - N/A   Clear
7:15 PM 91.4 °F 93.2 °F 64.4 °F 41% 29.99 in 10.0 mi Calm Calm - N/A   Partly Cloudy
7:35 PM 89.6 °F 91.1 °F 64.4 °F 43% 29.99 in 10.0 mi Calm Calm - N/A   Partly Cloudy
7:55 PM 84.2 °F 86.6 °F 66.2 °F 55% 29.99 in 10.0 mi Calm Calm - N/A   Clear
8:15 PM 80.6 °F 82.7 °F 66.2 °F 61% 30.00 in 10.0 mi Calm Calm - N/A   Clear
8:35 PM 77.0 °F - 66.2 °F 69% 30.00 in 10.0 mi Calm Calm - N/A   Clear
8:55 PM 75.2 °F - 66.2 °F 73% 30.01 in 10.0 mi Calm Calm - N/A   Clear
9:15 PM 75.2 °F - 66.2 °F 73% 30.01 in 10.0 mi Calm Calm - N/A   Clear
9:35 PM 73.4 °F - 66.2 °F 78% 30.02 in 10.0 mi Calm Calm - N/A   Clear
9:55 PM 73.4 °F - 66.2 °F 78% 30.02 in 10.0 mi Calm Calm - N/A   Clear
11:15 PM 69.8 °F - 66.2 °F 88% 30.03 in 10.0 mi Calm Calm - N/A   Clear
11:55 PM 68.0 °F - 66.2 °F 94% 30.03 in 10.0 mi Calm Calm - N/A   Clear